Theta_e
342 346 349 348 346 345 345 346 346 345 344 343 345 344 342 341 342 345 344 344 342 339 338 337 336 336 335 335 334 333 333 334 336 337 337 338 341 341 341 340 341 338 341
345 346 347 349 346 345 344 344 344 344 343 341 341 344 342 340 340 340 341 342 339 338 338 336 335 334 334 333 333 332 333 334 334 334 333 340 340 339 339 337 339 336 338
344 346 348 348 348 345 344 343 343 343 341 340 340 341 342 340 338 338 338 341 339 337 335 335 335 334 334 333 332 332 332 333 334 335 337 335 337 337 337 336 335 336 336
345 345 347 345 347 345 343 343 343 344 343 340 338 337 338 338 337 337 337 339 337 336 336 334 334 335 334 333 333 333 333 333 334 336 330 333 333 336 336 335 335 335 334
344 344 346 345 348 344 342 342 341 343 343 340 339 337 335 335 335 336 336 336 336 335 334 334 336 336 333 333 333 333 332 331 333 333 332 333 335 337 336 334 333 332 333
343 344 343 346 347 343 343 342 340 340 338 342 340 338 337 335 335 334 334 337 337 334 334 334 335 334 334 333 332 332 331 331 333 327 329 330 331 336 336 334 332 331 333
342 344 346 345 346 345 343 341 340 338 338 343 340 340 338 335 334 332 333 333 334 333 332 333 333 333 333 332 333 331 330 329 326 326 329 332 332 333 336 334 332 330 331
341 344 344 339 341 343 343 342 342 339 337 337 340 340 338 337 334 334 333 333 333 331 331 330 332 332 332 332 333 330 328 329 326 324 326 331 333 332 333 334 332 331 330
344 342 343 344 340 336 339 339 340 340 339 336 339 341 339 337 337 335 336 334 332 332 331 331 332 331 330 329 328 327 327 328 327 325 323 326 331 331 330 331 332 331 329
341 343 341 342 341 341 340 334 334 337 337 336 334 337 334 333 333 334 332 333 333 333 332 333 332 330 329 328 325 324 323 325 327 326 325 325 325 329 329 329 329 330 330
338 340 342 341 341 340 339 335 330 332 332 332 331 329 329 333 333 331 329 332 332 334 333 333 332 330 330 327 325 324 322 325 325 325 324 325 324 327 329 328 330 329 330
333 336 338 340 340 340 338 339 338 337 334 333 333 334 333 332 332 331 327 327 331 330 332 333 332 332 327 325 325 323 322 324 323 324 324 325 324 327 329 330 330 331 331
337 336 336 338 339 340 338 338 338 339 337 336 334 335 334 332 332 331 331 329 330 323 328 330 330 329 327 326 325 324 323 323 323 325 325 325 325 327 329 331 331 331 331
335 337 338 337 338 338 340 338 337 337 337 336 336 335 335 333 332 330 329 330 331 330 329 330 329 330 328 328 327 325 324 323 323 325 325 322 325 327 329 331 332 332 332
334 337 338 339 336 336 337 338 337 337 337 337 336 335 333 332 332 330 329 328 329 328 328 328 328 327 327 326 325 325 324 324 324 324 326 318 323 326 328 330 331 333 333
334 335 338 339 338 336 335 337 338 338 338 337 337 336 334 333 332 330 329 328 327 328 327 327 326 326 326 326 325 324 324 324 323 324 324 325 322 325 327 329 331 332 333
332 334 335 338 340 338 336 337 340 339 339 337 337 336 336 334 332 330 330 329 327 327 327 326 326 326 325 325 324 323 323 323 323 323 324 325 325 320 324 327 329 331 332
327 329 333 334 337 339 339 341 340 339 337 337 335 336 337 335 333 331 330 329 329 327 326 326 325 325 325 325 324 322 322 322 322 322 323 323 324 324 322 325 327 329 330
323 326 328 330 332 335 338 340 340 340 338 338 336 333 334 336 335 332 331 331 330 329 327 326 326 326 324 324 323 323 323 323 323 322 322 322 323 323 324 323 322 323 327
321 320 319 324 328 332 335 337 338 339 339 339 337 335 333 335 336 334 332 331 331 330 328 328 326 327 326 324 322 322 324 324 324 324 324 324 324 323 323 323 323 320 319
319 318 316 318 324 327 330 332 333 334 336 337 338 337 334 334 335 335 333 332 330 328 329 328 327 326 325 326 322 322 323 325 324 325 325 324 323 323 323 323 323 323 322
315 316 315 316 319 323 328 331 332 332 333 334 335 337 336 334 334 335 334 333 330 328 328 328 326 324 325 326 320 321 316 321 323 323 323 322 322 323 322 322 322 322 322
313 315 317 317 318 322 326 329 330 331 331 331 332 334 335 333 333 333 333 332 331 329 327 328 327 324 321 325 324 320 315 314 320 322 319 320 320 321 322 323 322 321 321
315 317 317 318 318 320 324 326 327 326 325 327 329 334 334 332 331 332 332 332 330 330 327 327 328 326 323 320 321 322 322 320 314 313 323 323 324 320 320 322 322 323 323
313 316 319 319 319 318 319 321 326 327 328 328 329 331 332 331 333 332 333 332 330 329 328 327 326 325 325 322 321 318 317 318 319 314 311 316 323 322 322 321 322 322 323
313 318 324 323 323 324 322 323 324 325 327 327 328 328 327 329 330 331 331 330 329 328 328 328 328 326 325 323 322 321 318 313 313 313 312 313 314 318 321 323 322 323 323
Wind_Speed
11 14 12 14 13 11 10 10 10 12 11 10 10 12 10 10 12 11 13 12 15 13 13 13 13 13 13 13 14 14 14 15 13 12 13 15 15 17 17 19 16 16 16
15 15 11 13 12 12 10 9 9 9 9 9 8 9 10 10 10 12 12 11 12 11 12 13 13 12 12 13 12 12 13 12 9 6 2 15 14 17 18 18 17 16 18
14 15 14 11 12 12 10 9 9 10 10 9 8 8 9 10 8 9 10 9 11 12 10 10 12 11 12 11 11 11 10 10 8 9 9 10 12 15 16 15 15 16 16
15 12 14 10 12 11 10 9 6 10 11 10 7 6 7 7 7 8 8 8 9 9 9 10 9 11 11 11 10 9 8 8 8 11 5 11 10 11 13 14 14 14 14
13 11 14 11 11 11 10 10 6 6 10 11 9 7 6 6 6 7 6 8 8 8 8 9 10 9 9 9 8 7 6 3 7 4 8 8 8 9 12 11 12 13 13
11 11 14 12 12 10 9 9 7 6 4 9 11 8 6 5 5 4 3 5 6 6 6 7 8 7 5 5 6 6 4 4 10 6 6 7 8 8 10 10 10 10 10
11 11 13 11 11 10 10 9 6 5 3 12 8 10 9 5 3 2 2 3 5 5 4 5 5 5 5 2 4 4 3 6 4 5 5 8 8 7 7 7 8 8 9
10 7 11 10 9 9 10 9 7 6 3 3 8 9 10 9 5 4 3 3 3 3 3 2 2 3 5 5 3 3 2 7 4 4 4 7 8 6 6 6 6 6 6
13 8 8 11 10 7 7 8 8 7 5 1 3 9 9 10 8 5 2 3 4 3 3 3 2 0 1 3 3 2 3 8 10 3 2 3 7 4 4 4 4 3 4
8 11 9 8 10 10 9 7 6 6 7 5 5 7 6 5 7 6 4 3 5 7 6 5 3 3 3 1 1 2 3 8 9 1 2 5 2 3 1 1 1 0 0
6 7 8 8 7 7 6 9 6 6 5 6 5 8 8 7 9 9 7 6 4 4 7 6 6 6 4 5 5 4 5 6 3 3 3 7 1 3 4 3 3 3 3
10 9 7 6 8 6 6 8 9 9 8 9 9 9 8 8 5 3 5 5 4 4 4 7 7 6 6 7 6 7 6 6 4 4 3 7 4 6 7 7 6 6 6
12 10 11 9 6 7 6 5 4 5 6 6 10 8 8 6 5 5 4 5 6 8 7 9 8 7 9 7 6 5 6 5 5 4 4 8 7 9 9 9 10 9 9
11 13 13 13 11 9 5 5 6 6 6 5 7 9 6 5 6 6 5 6 6 5 8 7 5 6 7 8 8 8 8 6 5 4 5 9 9 11 11 12 12 13 12
11 12 13 14 13 11 9 7 6 7 7 8 8 9 8 7 6 7 6 6 6 6 7 7 7 6 7 9 9 9 9 8 8 5 4 9 10 12 14 15 15 15 15
10 11 12 14 13 12 11 12 9 8 8 8 8 9 12 8 7 8 7 7 6 6 6 6 6 6 6 6 8 9 9 8 9 8 6 6 11 13 15 17 17 17 17
10 10 12 13 14 14 13 10 10 9 9 8 8 11 11 11 10 9 7 7 7 6 7 6 7 7 7 7 9 8 7 9 9 10 8 7 7 13 14 17 19 19 19
10 11 12 10 13 15 14 12 9 9 9 9 7 9 12 12 13 10 8 8 7 6 7 7 7 7 7 7 7 7 7 8 9 10 9 9 8 7 10 17 19 20 21
10 10 11 12 14 14 14 11 11 12 10 9 8 8 12 13 13 11 8 7 8 7 7 7 7 7 7 7 7 7 7 8 9 8 11 12 12 10 8 11 17 18 20
11 10 10 10 12 12 10 10 9 9 9 9 9 9 12 11 13 11 9 9 8 7 7 7 9 7 7 7 8 8 8 8 9 9 10 10 11 12 10 11 8 9 18
13 13 12 11 12 10 8 8 8 9 9 9 9 11 13 13 14 12 9 10 9 9 9 9 8 9 7 7 7 7 10 12 12 10 9 10 11 10 10 9 8 8 8
13 12 12 12 12 10 8 8 9 8 8 9 9 10 12 13 14 11 11 10 11 8 12 11 10 8 7 6 6 6 5 5 7 7 7 7 8 5 6 8 10 11 9
13 11 10 11 12 11 12 9 8 8 8 7 9 9 10 13 12 11 12 11 9 7 8 9 8 9 7 7 10 6 4 4 4 4 6 5 5 4 5 6 8 10 10
9 6 9 9 11 11 12 10 11 10 10 8 8 7 6 8 10 11 12 11 10 6 9 8 7 7 8 8 2 6 9 7 3 5 4 2 5 6 7 5 7 8 9
4 6 7 8 9 9 10 11 8 10 7 7 6 5 3 7 9 11 10 10 11 9 11 9 9 8 7 8 7 3 6 7 7 7 6 6 6 3 5 6 7 7 8
3 4 4 1 4 4 6 8 10 10 9 7 5 2 3 4 5 8 9 8 8 8 9 8 11 12 9 8 8 8 7 4 5 6 8 9 10 11 9 8 9 9 9
Wind_Direction
136 132 145 140 138 135 132 122 113 111 106 101 105 110 105 102 99 87 92 90 87 96 98 90 89 86 83 78 72 68 73 59 56 51 68 60 54 72 61 43 57 58 63
126 141 146 143 142 138 132 128 126 119 117 115 113 113 111 107 107 96 97 90 105 101 96 102 94 92 89 92 83 75 65 52 27 19 67 94 64 64 62 57 54 59 61
124 137 154 149 143 138 133 133 144 141 131 122 123 133 130 125 111 112 113 121 111 113 110 103 109 95 93 94 91 79 59 38 2 332 310 93 73 65 66 65 62 60 59
137 150 144 140 135 139 139 142 147 162 135 119 123 129 131 127 126 133 128 121 122 119 104 109 118 108 102 101 97 86 61 24 335 313 64 69 83 71 74 70 65 57 63
143 144 126 138 138 143 148 151 139 115 132 141 138 122 133 137 136 140 141 140 133 121 113 111 95 104 109 108 105 95 76 9 303 311 59 32 90 70 69 65 71 65 57
148 130 133 139 144 149 152 149 147 149 155 144 138 128 131 115 140 138 139 150 140 131 126 109 101 89 95 114 103 92 77 312 291 65 67 79 60 68 81 78 74 68 66
151 134 147 144 149 153 158 157 155 166 82 144 152 144 138 137 134 155 170 135 147 149 152 122 91 76 70 85 123 90 47 324 21 71 67 50 61 53 62 80 72 64 65
141 134 137 145 149 156 156 158 156 157 145 223 148 158 152 144 162 197 170 158 171 158 160 159 94 48 53 52 82 72 349 307 288 74 55 79 20 58 51 75 72 69 65
145 159 161 168 165 155 165 167 168 166 159 106 135 171 166 154 169 183 203 196 171 170 170 184 152 214 63 73 65 29 325 312 306 52 24 95 34 35 48 40 34 69 58
158 177 182 176 178 180 173 172 176 180 180 165 141 173 171 156 166 186 180 179 206 182 197 180 187 234 246 230 45 4 319 284 271 266 243 86 45 341 18 27 344 329 173
166 219 186 190 189 186 182 171 185 188 190 180 184 157 164 217 182 168 203 147 168 218 207 187 200 222 234 238 232 244 276 259 283 265 267 125 204 277 284 271 261 268 252
198 197 209 221 189 196 202 164 200 192 204 201 205 182 216 218 211 222 159 183 215 226 236 211 217 224 230 250 200 208 238 253 262 261 260 149 216 252 258 260 248 247 247
196 193 202 203 221 204 211 207 197 201 205 205 208 205 213 219 207 214 214 198 219 206 229 209 216 229 235 245 255 247 251 254 253 246 240 171 218 240 248 253 252 246 246
198 195 196 206 201 214 219 204 215 211 202 209 208 208 209 216 221 221 222 216 208 214 221 230 227 235 239 244 255 266 265 262 261 259 261 179 210 242 250 252 250 248 244
204 201 199 200 208 207 212 213 218 223 206 217 212 207 212 214 218 221 225 225 224 220 228 236 235 238 236 245 252 251 255 257 261 267 266 196 206 235 248 250 249 250 248
216 215 207 200 204 211 211 215 215 223 229 218 222 211 212 220 215 219 222 223 224 222 223 230 239 236 243 250 254 256 259 260 261 261 261 256 213 225 242 249 250 250 250
218 224 219 213 202 208 213 213 228 217 226 222 222 223 217 216 227 224 224 227 225 224 223 227 232 236 245 245 247 251 252 250 253 255 253 251 254 218 227 243 247 249 249
232 224 218 215 220 211 214 207 208 224 224 220 222 229 213 216 221 224 226 226 228 222 221 229 231 239 239 247 251 248 244 237 242 246 251 250 244 245 217 226 237 242 245
231 225 225 223 222 226 224 223 220 212 220 216 203 210 231 219 219 222 226 231 229 228 227 231 235 240 248 249 247 251 254 254 252 248 245 244 244 239 239 220 219 231 237
229 240 241 233 222 223 226 225 229 225 223 225 221 194 205 226 216 216 222 225 223 229 230 231 235 243 248 256 271 271 261 255 254 250 247 248 244 241 235 236 238 229 230
246 252 251 242 228 222 220 218 220 227 224 227 225 207 200 222 219 210 214 218 216 224 228 235 239 241 246 249 263 275 258 246 244 240 250 251 250 249 243 232 231 240 234
251 249 248 242 240 229 222 221 225 221 230 238 244 229 204 218 224 215 213 217 219 213 233 238 240 241 245 241 242 271 280 269 232 230 245 250 258 262 256 250 247 245 240
251 255 250 242 239 232 219 223 223 230 240 218 224 228 228 226 225 224 225 225 223 211 226 229 223 219 232 237 221 230 287 242 345 204 218 231 247 243 244 243 245 245 242
264 280 265 255 243 235 232 221 230 226 231 234 239 224 219 214 227 228 229 231 231 214 212 226 235 219 216 233 246 228 248 270 280 298 294 296 295 255 250 258 255 246 237
303 275 263 258 257 257 249 242 231 235 253 259 243 222 197 230 225 232 228 229 234 231 232 221 226 223 218 224 226 188 227 243 247 250 266 274 264 264 242 234 244 253 248
21 15 358 331 22 307 247 239 238 240 236 248 238 211 211 225 222 226 233 234 240 240 236 233 234 233 224 220 225 227 214 187 207 221 240 235 242 263 260 254 243 238 234